Location: Home
(42.5358°N, 72.7383°W)
Time: 11:58:34
(UTC-05:00)

Transit 2A Rocket - Pass Details

Date: 02 December 2021
Orbit: 584 x 918 km, 66.7° (Epoch: 22 January)

Event Time Altitude Azimuth Distance (km) Brightness Sun altitude
Rises 18:10:15 0° 314° (NW) 3,540 8.9 -20.0°
Reaches altitude 10° 18:13:41 10° 295° (WNW) 2,562 8.4 -20.6°
Maximum altitude 18:17:20 17° 257° (WSW) 2,058 8.2 -21.3°
Drops below altitude 10° 18:20:51 10° 219° (SW) 2,447 8.3 -21.9°
Sets 18:24:03 0° 199° (SSW) 3,312 8.7 -22.5°
